Location: Artiguedieu
(43.5000°N, 0.5454°E)
Time: 09:35:50
(UTC+00:00)

Explorer 7 - Pass Details

Date: 06 August 2021
Orbit: 484 x 676 km, 50.3° (Epoch: 22 September)

Event Time Altitude Azimuth Distance (km) Brightness Sun altitude
Rises 07:15:47 0° 298° (WNW) 2,602 9.8 24.3°
Reaches altitude 10° 07:18:01 10° 305° (NW) 1,739 9.0 24.7°
Maximum altitude 07:21:46 42° 18° (NNE) 771 8.1 25.4°
Drops below altitude 10° 07:25:44 10° 90° (E) 1,835 11.4 26.1°
Sets 07:28:09 0° 97° (E) 2,766 11.7 26.5°
